Location: Unspecified
(0.0000°N, 0.0000°E)
Time: 15:23:51
(UTC+00:00)

LAPAN A3 - Visible Passes

Search period start: 31 May 2023 00:00
Search period end: 10 June 2023 00:00
Orbit: 489 x 508 km, 97.2° (Epoch: 31 May)

Date Brightness Start Highest point End Pass type
(mag) Time Alt. Az. Time Alt. Az. Time Alt. Az.
31 May ? 19:45:07 19° SW 19:46:43 26° W 19:49:45 10° NW visible
01 Jun ? 19:24:49 25° S 19:26:43 57° W 19:30:15 10° NNW visible
02 Jun ? 19:04:32 22° SSE 19:06:43 60° ENE 19:10:15 10° N visible
03 Jun ? 18:44:14 14° SE 18:46:41 27° E 18:49:45 10° NNE visible
04 Jun ? 18:24:56 10° ESE 18:26:40 13° E 18:28:24 10° NE visible
04 Jun ? 19:58:34 12° SW 20:00:09 16° W 20:02:22 10° WNW visible
05 Jun ? 19:38:16 20° SSW 19:40:08 32° W 19:43:23 10° NW visible
06 Jun ? 19:17:57 23° S 19:20:06 75° W 19:23:42 10° NNW visible
07 Jun ? 18:57:38 18° SSE 19:00:04 46° E 19:03:32 10° N visible
08 Jun ? 18:37:19 10° SE 18:40:02 21° E 18:42:50 10° NNE visible
09 Jun ? 19:51:37 14° SW 19:53:27 19° WSW 19:56:07 10° NW visible
